Location: Unspecified
(0.0000°N, 0.0000°E)
Time: 09:28:14
(UTC+00:00)

MANDRAKE 2 BAKER - Pass Details

Date: 22 February 2026
Orbit: 402 x 407 km, 97.7° (Epoch: 7 March)

Event Time Altitude Azimuth Distance (km) Brightness Sun altitude
Rises 05:24:10 0° 162° (SSE) 2,326 ? -12.1°
Reaches altitude 10° 05:26:10 10° 158° (SSE) 1,462 ? -11.6°
Maximum altitude 05:29:14 55° 79° (ENE) 489 ? -10.9°
Drops below altitude 10° 05:32:16 10° 360° (N) 1,449 ? -10.1°
Sets 05:34:15 0° 355° (N) 2,303 ? -9.7°
